TimeCST,TemperatureF,Dew PointF,Humidity,Sea Level PressureIn,VisibilityMPH,Wind Direction,Wind SpeedMPH,Gust SpeedMPH,PrecipitationIn,Events,Conditions,WindDirDegrees,DateUTC
12:53 AM,37.9,37.0,97,29.63,0.2,NE,6.9,-,N/A,Fog,Fog,40,2013-12-04 06:53:00
1:53 AM,37.9,37.0,97,29.60,0.2,ENE,8.1,-,N/A,Fog,Fog,60,2013-12-04 07:53:00
2:53 AM,39.0,37.9,96,29.60,0.2,ENE,5.8,-,N/A,Fog,Fog,70,2013-12-04 08:53:00
3:53 AM,39.0,37.9,96,29.59,0.2,NE,4.6,-,N/A,Fog,Fog,40,2013-12-04 09:53:00
4:53 AM,39.0,37.9,96,29.57,0.2,NE,4.6,-,N/A,Fog,Fog,40,2013-12-04 10:53:00
5:53 AM,39.0,37.9,96,29.57,0.2,NNE,5.8,-,N/A,Fog,Fog,30,2013-12-04 11:53:00
6:53 AM,39.0,37.0,93,29.57,0.2,North,6.9,-,N/A,Fog,Fog,10,2013-12-04 12:53:00
7:53 AM,37.9,37.0,97,29.59,0.2,NW,5.8,-,N/A,Fog,Fog,310,2013-12-04 13:53:00
8:53 AM,37.9,37.0,97,29.58,0.8,NNW,9.2,-,N/A,,Overcast,340,2013-12-04 14:53:00
9:53 AM,37.9,37.0,97,29.60,0.8,NW,9.2,-,N/A,,Overcast,320,2013-12-04 15:53:00
10:03 AM,37.9,37.0,97,29.57,1.0,NNW,5.8,-,0.01,Rain,Light Rain,340,2013-12-04 16:03:00
10:23 AM,37.9,37.0,97,29.56,2.0,North,4.6,-,0.02,Rain,Light Rain,360,2013-12-04 16:23:00
10:38 AM,39.0,37.9,96,29.56,3.0,North,4.6,-,0.02,,Overcast,10,2013-12-04 16:38:00
10:53 AM,39.0,37.9,96,29.58,3.0,WNW,5.8,-,0.02,,Overcast,290,2013-12-04 16:53:00
11:33 AM,37.0,36.0,96,29.57,2.5,West,12.7,-,0.00,Rain,Light Rain,280,2013-12-04 17:33:00
11:41 AM,37.0,35.1,93,29.56,3.0,West,12.7,-,0.00,,Overcast,280,2013-12-04 17:41:00
11:53 AM,37.0,35.1,93,29.58,5.0,WNW,17.3,-,0.00,,Overcast,290,2013-12-04 17:53:00
12:53 PM,30.9,30.0,96,29.59,9.0,WNW,21.9,-,N/A,,Overcast,290,2013-12-04 18:53:00
1:20 PM,30.9,28.0,89,29.59,9.0,WNW,20.7,28.8,N/A,,Overcast,290,2013-12-04 19:20:00
1:53 PM,28.9,27.0,92,29.63,10.0,WNW,16.1,26.5,N/A,,Overcast,300,2013-12-04 19:53:00
2:53 PM,27.0,23.0,85,29.67,10.0,WNW,18.4,-,N/A,,Overcast,290,2013-12-04 20:53:00
3:53 PM,26.1,21.9,84,29.72,10.0,WNW,19.6,27.6,N/A,,Overcast,290,2013-12-04 21:53:00
4:43 PM,24.1,19.9,84,29.72,10.0,WNW,17.3,-,N/A,,Overcast,290,2013-12-04 22:43:00
4:53 PM,24.1,19.9,84,29.77,10.0,West,19.6,25.3,N/A,,Overcast,280,2013-12-04 22:53:00
5:53 PM,23.0,19.0,85,29.79,10.0,West,18.4,25.3,N/A,,Overcast,280,2013-12-04 23:53:00
6:53 PM,23.0,17.1,78,29.85,10.0,West,20.7,26.5,N/A,,Overcast,280,2013-12-05 00:53:00
7:16 PM,21.9,16.0,78,29.83,10.0,WNW,19.6,27.6,N/A,,Overcast,290,2013-12-05 01:16:00
7:53 PM,21.9,15.1,75,29.88,10.0,WNW,19.6,26.5,N/A,,Overcast,290,2013-12-05 01:53:00
8:53 PM,21.9,15.1,75,29.90,10.0,WNW,19.6,23.0,N/A,,Overcast,300,2013-12-05 02:53:00
9:38 PM,19.9,12.0,71,29.88,10.0,WNW,15.0,26.5,N/A,,Scattered Clouds,300,2013-12-05 03:38:00
9:53 PM,19.9,12.0,71,29.91,10.0,WNW,17.3,-,N/A,,Partly Cloudy,290,2013-12-05 03:53:00
10:28 PM,19.9,12.0,71,29.92,10.0,West,23.0,28.8,N/A,,Mostly Cloudy,280,2013-12-05 04:28:00
10:53 PM,19.0,10.9,71,29.97,10.0,WNW,24.2,33.4,N/A,,Mostly Cloudy,300,2013-12-05 04:53:00
11:04 PM,18.0,9.0,68,29.93,10.0,WNW,20.7,31.1,N/A,,Partly Cloudy,300,2013-12-05 05:04:00
11:40 PM,18.0,10.0,71,29.96,10.0,WNW,16.1,25.3,N/A,,Mostly Cloudy,290,2013-12-05 05:40:00
11:53 PM,18.0,10.0,71,30.02,10.0,WNW,17.3,27.6,N/A,,Mostly Cloudy,290,2013-12-05 05:53:00